Tracking 31011 objects as of 12-Jul-2025
HD Live streaming from Space Station
objects crossing your sky now

STARLINK-30813

Track STARLINK-30813 now!
10-day predictions
STARLINK-30813 is classified as:


NORAD ID: 58213
Int'l Code: 2023-170H
Perigee: 565.6 km
Apogee: 566.9 km
Inclination: 43.0 °
Period: 95.8 minutes
Semi major axis: 6937 km
RCS: Unknown
Launch date: November 3, 2023
Source: United States (US)
Launch site: AIR FORCE EASTERN TEST RANGE (AFETR)
Your satellite tracking list
Your tracking list is empty




NASA's NSSDC Master Catalog

Two Line Element Set (TLE):
1 58213U 23170H   25192.93389704  .00000154  00000-0  26501-4 0  9992
2 58213  43.0036  64.1135 0000930 207.1974 152.8820 15.02534034 94061
Source of the keplerian elements: AFSPC